Wind_Speed
19 13 25 29 29 13 18 20 22 17 7 8 16 17 20 20 16 18 19 18 19 18 17 9 3 10 17 19 24 29 28 25 20 15 9 8 9 9 9 9 10 9 9 10
10 28 31 24 21 24 23 23 23 14 12 7 16 20 18 18 19 17 20 20 19 17 11 1 3 10 16 20 25 28 24 24 19 14 10 6 6 6 6 7 8 8 9 7
27 37 22 23 21 25 29 29 24 19 4 8 10 22 19 14 13 16 17 17 16 14 10 6 8 12 16 21 25 24 22 21 16 13 9 6 5 5 4 4 4 5 5 3
22 27 24 23 28 23 26 24 23 17 8 12 3 17 19 18 20 16 16 13 9 5 3 7 10 13 19 24 23 22 21 18 14 12 8 6 4 3 2 2 3 4 3 4
18 18 28 26 30 26 22 15 17 15 12 12 17 10 18 5 18 23 18 13 6 0 4 9 11 17 21 24 22 20 18 15 13 11 7 4 4 3 1 2 4 4 3 6
17 10 22 31 18 23 12 12 12 7 9 13 17 13 25 13 18 14 14 11 1 4 7 9 13 20 23 22 20 19 17 14 12 10 6 5 5 3 1 2 2 3 4 6
16 17 3 14 22 20 23 14 8 9 9 11 11 12 19 9 13 16 17 10 2 5 9 12 16 17 22 21 20 18 16 14 12 9 5 5 4 2 1 2 2 1 2 4
14 10 21 17 16 19 27 23 10 14 13 9 13 11 9 17 23 22 16 11 6 9 10 13 18 18 21 21 20 17 15 14 12 8 5 5 3 1 1 1 1 1 1 2
11 16 11 19 13 24 23 22 17 10 1 4 5 7 13 15 14 12 16 11 8 11 13 16 17 20 21 20 19 17 15 13 11 7 6 4 3 1 1 2 2 1 2 1
6 6 12 19 20 23 20 22 12 11 13 9 4 7 9 9 14 10 10 11 9 12 14 16 17 19 20 20 18 15 14 13 12 8 6 4 3 1 2 3 3 3 2 4
10 6 10 18 20 23 11 22 8 10 7 7 4 6 8 16 15 15 13 10 13 15 16 17 17 20 20 19 18 15 13 12 11 8 6 4 3 3 3 5 4 4 3 5
7 6 7 24 14 19 22 17 22 11 9 10 5 6 1 9 3 3 6 9 13 14 16 17 18 20 19 19 18 16 14 12 10 9 6 4 4 4 5 5 4 5 5 6
7 5 11 7 8 14 28 22 22 9 4 16 11 3 1 3 5 2 7 11 12 15 16 16 17 16 18 20 19 17 14 12 10 9 7 5 5 4 7 5 5 5 7 6
7 4 10 10 6 1 21 24 21 20 13 9 16 9 13 6 7 0 5 12 13 14 16 16 16 16 19 21 20 17 15 12 11 10 9 6 6 6 8 6 6 5 6 8
2 4 7 15 14 10 5 21 26 25 20 16 10 19 21 15 14 5 7 12 15 15 17 17 18 16 17 20 19 17 15 14 13 11 11 8 7 8 9 7 7 7 6 8
3 3 10 10 11 9 10 8 21 25 22 18 10 18 19 20 8 4 7 13 16 17 17 18 18 18 17 21 20 18 16 15 14 12 12 10 8 9 8 7 6 7 8 8
2 0 5 10 2 6 10 15 12 13 18 23 20 13 5 9 12 10 10 15 18 19 18 20 21 19 21 23 22 20 18 16 15 14 12 11 9 9 9 8 7 7 8 9
4 2 2 3 1 10 2 10 12 13 9 21 21 18 17 21 19 13 9 15 17 18 19 17 17 19 24 23 22 20 19 19 17 15 13 12 12 10 10 10 9 9 9 9
14 3 2 3 6 3 6 10 6 5 5 12 8 12 17 15 12 17 12 14 19 20 20 19 27 28 25 25 24 22 20 20 18 17 15 15 14 13 11 11 10 7 10 9
14 7 4 2 4 13 9 14 5 2 7 14 12 11 10 11 13 16 10 15 15 16 14 17 26 25 26 26 26 24 22 21 20 19 18 16 16 14 13 12 12 9 9 10
6 4 9 6 3 2 13 15 2 9 3 15 13 12 12 8 11 14 19 12 16 18 19 24 27 28 28 28 27 26 24 23 22 20 19 18 17 15 13 14 11 12 11 12
5 6 5 4 4 4 19 6 2 6 9 12 13 12 15 16 20 22 18 16 12 19 20 25 23 25 28 29 30 27 26 25 22 21 20 19 18 16 14 15 13 12 12 12
2 2 1 3 2 6 11 4 4 8 11 13 15 16 16 17 18 18 17 14 13 17 18 27 25 25 27 30 32 29 28 26 24 22 21 21 19 17 16 16 15 14 13 12
1 1 2 3 5 8 7 8 11 13 11 15 16 17 17 17 18 17 18 13 13 15 16 25 25 22 25 31 32 33 31 29 27 25 22 21 21 19 17 16 16 15 15 13
2 4 4 2 6 11 5 13 15 20 16 17 18 17 17 17 18 16 15 13 13 14 18 25 23 23 28 32 32 29 30 31 28 25 23 22 22 23 20 18 18 17 17 16
1 2 2 2 3 3 13 15 19 16 20 19 21 22 20 17 17 16 14 11 12 14 20 20 23 23 26 30 32 31 31 33 31 26 24 24 24 23 21 20 15 20 18 21
Wind_Direction
190 197 219 212 215 235 253 234 238 234 228 245 251 268 278 286 288 282 282 280 274 269 281 308 258 192 179 178 170 166 166 174 173 180 190 221 234 241 246 247 249 255 262 265
176 221 220 223 220 223 229 234 237 248 259 247 279 280 280 284 283 284 283 277 269 276 284 292 163 173 174 167 166 157 162 169 174 184 193 202 221 248 253 260 259 259 280 265
198 224 212 207 213 215 224 229 237 244 256 245 289 281 276 280 284 291 280 262 273 274 272 186 160 167 160 160 157 156 160 166 173 180 182 198 243 255 257 251 249 271 279 238
224 225 200 206 217 209 230 227 240 240 234 255 240 285 278 290 287 285 283 275 274 263 163 159 155 153 158 158 155 153 158 165 170 175 180 207 236 237 220 261 277 279 257 215
210 200 213 207 209 204 233 222 216 228 247 274 257 276 274 226 282 280 281 280 305 201 154 161 156 154 159 152 154 155 158 162 167 174 190 210 205 189 221 261 282 278 254 221
222 209 203 221 203 204 207 197 164 185 235 245 251 241 279 257 252 265 264 266 10 86 124 137 143 148 154 152 152 157 159 161 168 177 193 195 168 160 265 291 284 288 239 216
215 222 210 202 201 192 195 197 185 211 209 240 230 217 249 251 245 252 265 275 162 141 145 145 151 157 154 155 158 161 162 164 173 180 181 160 156 167 292 312 294 333 211 191
204 193 210 193 199 190 191 190 215 217 225 234 203 230 260 231 238 237 245 272 159 158 155 159 158 159 158 161 163 164 162 166 176 174 164 154 162 191 332 352 84 96 164 158
220 227 179 183 181 183 201 212 214 238 119 220 194 240 268 248 245 232 227 223 195 168 160 162 161 162 164 168 167 165 167 171 170 169 156 162 171 160 77 84 102 108 45 115
284 244 207 189 192 191 185 178 189 213 212 218 211 237 237 223 230 217 214 204 173 160 159 164 169 165 171 171 167 169 171 169 171 162 156 164 166 151 97 99 82 81 82 107
267 277 174 175 200 185 181 189 195 199 223 209 230 231 217 228 213 221 217 191 168 167 168 167 171 169 173 169 170 174 168 170 169 158 159 159 151 128 120 111 88 85 103 113
303 294 244 206 198 197 198 195 194 197 183 218 232 231 49 241 257 225 169 158 160 164 164 169 169 168 174 174 176 177 174 176 171 162 162 166 140 123 118 125 94 90 110 110
342 237 223 173 195 206 202 204 204 212 181 204 198 189 62 251 253 163 132 146 153 158 159 168 168 174 177 180 182 179 180 181 172 165 168 165 143 122 114 119 105 96 113 110
329 275 259 208 203 353 207 208 205 207 216 191 215 209 252 256 320 52 148 154 157 169 163 168 173 179 181 185 184 180 182 185 179 170 172 172 145 123 111 112 107 92 112 117
57 280 291 273 276 286 287 219 211 214 216 221 197 218 248 253 291 328 170 164 158 171 171 175 177 180 184 186 186 180 182 185 183 171 174 176 159 135 114 112 103 97 105 115
138 318 324 262 233 252 272 257 225 218 215 218 211 228 230 252 279 244 178 181 174 181 180 177 182 182 186 186 186 179 181 185 183 176 177 172 172 156 138 126 122 101 99 119
237 326 324 218 117 308 264 239 220 225 218 221 225 227 257 250 257 253 196 187 195 184 181 182 185 185 185 186 184 181 181 181 184 180 175 173 174 166 150 130 128 123 119 119
222 206 262 283 208 231 221 28 211 199 207 229 239 247 251 253 263 270 219 202 201 190 186 183 180 185 187 185 183 181 179 181 185 186 177 178 176 170 155 136 133 124 126 129
224 216 243 263 217 315 120 24 6 205 145 15 355 277 263 298 308 274 240 207 199 208 182 182 181 181 180 181 181 179 178 183 185 191 184 182 179 175 165 148 141 133 134 136
193 233 260 268 230 212 37 342 327 243 169 7 354 335 327 332 246 261 261 208 205 195 197 175 174 175 178 182 177 178 180 184 190 191 190 184 184 182 176 160 148 145 138 131
180 185 222 219 268 277 352 328 212 187 32 341 335 326 311 285 256 299 316 279 212 189 180 171 169 174 181 177 177 183 182 189 193 190 189 185 185 186 180 167 154 146 142 132
166 165 192 201 222 224 0 11 60 358 327 333 333 318 307 295 288 289 288 291 230 176 171 176 171 174 178 177 178 185 189 190 187 186 187 188 186 186 180 171 160 152 150 140
153 275 169 229 51 348 349 309 355 340 333 337 326 324 315 307 295 291 284 271 235 204 176 177 175 170 177 181 183 184 193 184 182 183 186 186 186 185 182 176 169 162 163 162
274 66 272 245 48 337 326 35 359 345 334 333 332 324 323 317 308 298 285 258 238 199 193 175 170 176 178 184 187 193 181 184 183 183 184 184 183 185 185 184 182 180 178 176
288 317 319 294 7 332 255 342 340 333 332 335 335 337 331 326 312 303 286 252 231 207 190 182 177 182 185 183 188 189 185 181 183 184 181 182 185 186 188 192 193 195 196 190
320 333 347 336 325 233 282 302 324 326 329 331 332 336 335 333 320 311 292 257 226 200 189 195 184 181 183 183 185 187 187 183 177 181 182 184 185 186 190 193 198 201 202 205
Height
743 750 736 733 731 736 734 743 742 736 734 744 738 736 730 722 721 717 709 706 702 696 689 692 694 697 701 706 711 717 726 734 739 744 749 752 753 754 752 752 751 752 752 751
746 728 705 722 732 741 740 740 737 736 733 742 735 733 724 718 712 708 704 699 693 688 687 694 696 699 702 706 713 717 726 732 737 743 746 749 750 750 749 748 747 748 748 747
709 681 709 722 727 737 735 735 736 739 737 735 737 729 719 707 706 698 694 690 686 686 687 693 697 700 704 709 715 720 726 732 738 742 745 747 748 747 746 745 746 746 746 745
707 694 704 715 719 727 735 728 732 739 751 746 735 737 717 711 704 695 687 683 681 682 687 691 695 700 704 710 717 721 726 732 738 741 743 745 745 744 744 744 744 744 743 744
692 697 705 710 707 714 719 721 731 741 746 748 740 747 704 711 705 691 679 675 677 684 685 691 694 699 707 712 717 723 727 733 737 740 742 743 742 742 742 742 743 742 742 742
689 684 691 684 699 705 714 724 732 735 739 751 735 742 689 698 695 681 671 668 679 682 688 692 698 702 708 714 718 723 729 733 736 738 740 740 740 741 741 742 742 741 740 741
694 690 682 684 698 702 714 725 741 751 748 733 719 734 698 682 681 677 670 667 676 684 688 693 698 703 709 714 719 724 729 732 735 737 738 738 739 740 741 740 740 738 739 740
691 698 681 675 683 695 702 706 712 735 727 725 716 721 691 671 663 662 663 665 676 684 688 693 697 704 710 715 720 725 729 732 734 737 737 738 739 740 740 739 738 738 738 739
683 677 664 669 671 680 696 704 695 710 715 715 700 699 678 666 664 663 661 666 674 682 687 693 699 705 711 716 720 724 728 731 734 736 737 738 739 739 739 738 738 738 738 739
691 684 662 667 669 669 674 685 713 704 716 725 703 696 681 669 665 657 659 664 673 681 687 693 700 704 710 716 720 725 728 730 733 735 737 738 739 739 739 738 739 739 739 739
701 687 667 661 662 664 679 685 683 685 692 699 707 690 660 654 653 652 651 658 669 677 684 691 697 704 710 715 720 724 727 730 732 735 736 738 738 739 739 739 740 739 739 739
715 701 674 659 651 651 661 668 671 680 702 690 687 683 658 653 653 653 655 661 667 675 682 689 695 702 709 714 719 723 726 729 732 734 737 738 738 738 739 740 740 740 739 740
731 696 678 668 665 656 657 660 666 670 677 687 694 684 653 655 653 650 653 662 672 677 682 688 694 700 707 713 717 721 724 727 731 734 737 738 738 738 739 741 741 741 740 740
729 712 687 658 661 660 665 662 662 669 676 679 679 673 652 650 650 651 656 661 669 675 679 685 692 698 704 710 714 718 722 726 731 734 736 738 739 739 740 741 742 742 742 742
726 713 698 684 683 681 672 658 660 666 668 675 677 676 652 645 648 649 655 662 668 672 677 682 688 694 702 708 712 716 720 725 730 733 736 738 739 740 741 742 742 743 744 744
722 714 704 681 670 672 672 664 654 658 663 667 668 665 650 643 649 651 653 660 661 666 670 677 684 691 697 703 708 713 718 724 728 732 735 738 740 741 742 743 744 744 746 746
713 713 706 673 675 672 669 656 658 657 657 659 665 658 648 650 646 643 648 652 654 657 663 670 676 684 692 698 703 710 716 722 727 731 734 737 740 741 742 743 744 745 747 748
710 708 704 688 679 679 646 646 642 653 653 650 651 650 643 641 635 633 636 641 648 651 656 664 672 681 688 695 701 707 714 719 725 729 733 736 739 741 742 743 744 745 747 749
709 707 699 692 676 657 649 669 671 651 669 677 668 652 644 644 643 631 630 632 636 643 644 651 661 672 683 690 696 704 711 716 722 726 731 735 738 740 742 744 746 747 748 750
703 705 702 695 683 659 679 673 670 668 665 679 678 674 669 662 652 630 621 628 632 639 646 650 660 670 679 685 692 700 707 713 718 723 728 732 736 739 742 744 746 748 750 752
709 711 705 694 690 675 679 670 664 665 675 680 679 675 671 666 640 628 638 629 627 631 639 649 656 661 671 680 688 695 702 708 714 720 725 730 734 738 741 743 746 748 751 753
700 697 698 697 691 678 681 668 673 687 684 681 676 673 668 661 651 643 639 635 631 627 637 645 652 659 667 675 683 690 696 703 711 716 722 727 732 736 740 742 745 749 751 754
697 696 695 694 682 694 690 688 686 686 683 679 675 668 662 655 646 640 632 631 627 631 629 637 644 654 663 670 676 683 689 699 706 713 718 724 729 734 738 741 744 748 751 754
703 702 698 695 694 694 692 688 687 685 681 676 671 664 656 648 641 635 626 625 623 625 631 632 641 650 656 663 670 674 683 693 700 707 714 720 726 731 736 740 743 746 749 752
716 710 701 696 697 694 684 687 686 682 676 670 665 660 653 646 638 632 623 618 617 619 626 629 632 640 646 656 664 672 679 686 695 702 709 715 722 727 732 736 739 743 746 749
713 711 706 698 698 705 696 687 685 681 675 668 662 653 649 644 635 628 620 612 611 612 618 627 627 635 643 650 658 666 674 680 687 696 703 710 716 722 728 733 737 739 743 745